Year,Month,Day,Hour,Minute,Value (Times are PST for temperature in C)
2015,07,16,00,00,15.00
2015,07,16,00,01,15.00
2015,07,16,00,02,15.00
2015,07,16,00,03,15.00
2015,07,16,00,04,15.00
2015,07,16,00,05,15.00
2015,07,16,00,06,15.00
2015,07,16,00,07,15.00
2015,07,16,00,08,15.00
2015,07,16,00,09,14.90
2015,07,16,00,10,14.90
2015,07,16,00,11,14.90
2015,07,16,00,12,14.90
2015,07,16,00,13,14.90
2015,07,16,00,14,14.90
2015,07,16,00,15,14.90
2015,07,16,00,16,14.90
2015,07,16,00,17,14.90
2015,07,16,00,18,14.90
2015,07,16,00,19,14.90
2015,07,16,00,20,14.90
2015,07,16,00,21,14.80
2015,07,16,00,22,14.80
2015,07,16,00,23,14.80
2015,07,16,00,24,14.80
2015,07,16,00,25,14.80
2015,07,16,00,26,14.80
2015,07,16,00,27,14.80
2015,07,16,00,28,14.80
2015,07,16,00,29,14.80
2015,07,16,00,30,14.80
2015,07,16,00,31,14.80
2015,07,16,00,32,14.80
2015,07,16,00,33,14.80
2015,07,16,00,34,14.80
2015,07,16,00,35,14.80
2015,07,16,00,36,14.80
2015,07,16,00,37,14.80
2015,07,16,00,38,14.80
2015,07,16,00,39,14.80
2015,07,16,00,40,14.80
2015,07,16,00,41,14.80
2015,07,16,00,42,14.70
2015,07,16,00,43,14.70
2015,07,16,00,44,14.70
2015,07,16,00,45,14.70
2015,07,16,00,46,14.70
2015,07,16,00,47,14.70
2015,07,16,00,48,14.70
2015,07,16,00,49,14.70
2015,07,16,00,50,14.60
2015,07,16,00,51,14.60
2015,07,16,00,52,14.60
2015,07,16,00,53,14.70
2015,07,16,00,54,14.70
2015,07,16,00,55,14.60
2015,07,16,00,56,14.60
2015,07,16,00,57,14.60
2015,07,16,00,58,14.60
2015,07,16,00,59,14.60
2015,07,16,01,00,14.60
2015,07,16,01,01,14.50
2015,07,16,01,02,14.50
2015,07,16,01,03,14.50
2015,07,16,01,04,14.40
2015,07,16,01,05,14.40
2015,07,16,01,06,14.40
2015,07,16,01,07,14.30
2015,07,16,01,08,14.30
2015,07,16,01,09,14.30
2015,07,16,01,10,14.30
2015,07,16,01,11,14.20
2015,07,16,01,12,14.20
2015,07,16,01,13,14.20
2015,07,16,01,14,14.10
2015,07,16,01,15,14.10
2015,07,16,01,16,14.10
2015,07,16,01,17,14.00
2015,07,16,01,18,14.00
2015,07,16,01,19,13.90
2015,07,16,01,20,13.90
2015,07,16,01,21,13.80
2015,07,16,01,22,13.80
2015,07,16,01,23,13.80
2015,07,16,01,24,13.80
2015,07,16,01,25,13.70
2015,07,16,01,26,13.70
2015,07,16,01,27,13.70
2015,07,16,01,28,13.70
2015,07,16,01,29,13.60
2015,07,16,01,30,13.60
2015,07,16,01,31,13.60
2015,07,16,01,32,13.60
2015,07,16,01,33,13.50
2015,07,16,01,34,13.50
2015,07,16,01,35,13.50
2015,07,16,01,36,13.40
2015,07,16,01,37,13.40
2015,07,16,01,38,13.40
2015,07,16,01,39,13.40
2015,07,16,01,40,13.30
2015,07,16,01,41,13.30
2015,07,16,01,42,13.30
2015,07,16,01,43,13.30
2015,07,16,01,44,13.30
2015,07,16,01,45,13.30
2015,07,16,01,46,13.20
2015,07,16,01,47,13.20
2015,07,16,01,48,13.20
2015,07,16,01,49,13.20
2015,07,16,01,50,13.20
2015,07,16,01,51,13.20
2015,07,16,01,52,13.20
2015,07,16,01,53,13.10
2015,07,16,01,54,13.10
2015,07,16,01,55,13.10
2015,07,16,01,56,13.10
2015,07,16,01,57,13.10
2015,07,16,01,58,13.10
2015,07,16,01,59,13.00
2015,07,16,02,00,13.00
2015,07,16,02,01,13.00
2015,07,16,02,02,12.90
2015,07,16,02,03,12.90
2015,07,16,02,04,12.90
2015,07,16,02,05,12.90
2015,07,16,02,06,12.90
2015,07,16,02,07,12.90
2015,07,16,02,08,12.90
2015,07,16,02,09,12.80
2015,07,16,02,10,12.80
2015,07,16,02,11,12.90
2015,07,16,02,12,12.90
2015,07,16,02,13,12.90
2015,07,16,02,14,12.90
2015,07,16,02,15,12.90
2015,07,16,02,16,12.90
2015,07,16,02,17,12.90
2015,07,16,02,18,12.90
2015,07,16,02,19,12.90
2015,07,16,02,20,12.90
2015,07,16,02,21,12.90
2015,07,16,02,22,12.90
2015,07,16,02,23,12.90
2015,07,16,02,24,13.00
2015,07,16,02,25,13.00
2015,07,16,02,26,13.00
2015,07,16,02,27,13.10
2015,07,16,02,28,13.10
2015,07,16,02,29,13.20
2015,07,16,02,30,13.30
2015,07,16,02,31,13.40
2015,07,16,02,32,13.40
2015,07,16,02,33,13.40
2015,07,16,02,34,13.40
2015,07,16,02,35,13.50
2015,07,16,02,36,13.50
2015,07,16,02,37,13.50
2015,07,16,02,38,13.60
2015,07,16,02,39,13.60
2015,07,16,02,40,13.70
2015,07,16,02,41,13.70
2015,07,16,02,42,13.70
2015,07,16,02,43,13.70
2015,07,16,02,44,13.80
2015,07,16,02,45,13.80
2015,07,16,02,46,13.80
2015,07,16,02,47,13.80
2015,07,16,02,48,13.80
2015,07,16,02,49,13.80
2015,07,16,02,50,13.80
2015,07,16,02,51,13.80
2015,07,16,02,52,13.80
2015,07,16,02,53,13.80
2015,07,16,02,54,13.80
2015,07,16,02,55,13.80
2015,07,16,02,56,13.90
2015,07,16,02,57,13.90
2015,07,16,02,58,13.90
2015,07,16,02,59,13.90
2015,07,16,03,00,13.90
2015,07,16,03,01,13.90
2015,07,16,03,02,14.00
2015,07,16,03,03,14.00
2015,07,16,03,04,14.10
2015,07,16,03,05,14.10
2015,07,16,03,06,14.10
2015,07,16,03,07,14.10
2015,07,16,03,08,14.10
2015,07,16,03,09,14.10
2015,07,16,03,10,14.10
2015,07,16,03,11,14.00
2015,07,16,03,12,14.00
2015,07,16,03,13,14.10
2015,07,16,03,14,14.10
2015,07,16,03,15,14.10
2015,07,16,03,16,14.10
2015,07,16,03,17,14.20
2015,07,16,03,18,14.20
2015,07,16,03,19,14.20
2015,07,16,03,20,14.20
2015,07,16,03,21,14.20
2015,07,16,03,22,14.20
2015,07,16,03,23,14.20
2015,07,16,03,24,14.20
2015,07,16,03,25,14.10
2015,07,16,03,26,14.10
2015,07,16,03,27,14.10
2015,07,16,03,28,14.10
2015,07,16,03,29,14.10
2015,07,16,03,30,14.00
2015,07,16,03,31,14.00
2015,07,16,03,32,14.00
2015,07,16,03,33,14.00
2015,07,16,03,34,13.90
2015,07,16,03,35,13.90
2015,07,16,03,36,13.90
2015,07,16,03,37,13.90
2015,07,16,03,38,13.80
2015,07,16,03,39,13.80
2015,07,16,03,40,13.80
2015,07,16,03,41,13.80
2015,07,16,03,42,13.70
2015,07,16,03,43,13.70
2015,07,16,03,44,13.70
2015,07,16,03,45,13.70
2015,07,16,03,46,13.60
2015,07,16,03,47,13.60
2015,07,16,03,48,13.60
2015,07,16,03,49,13.60
2015,07,16,03,50,13.60
2015,07,16,03,51,13.60
2015,07,16,03,52,13.60
2015,07,16,03,53,13.50
2015,07,16,03,54,13.50
2015,07,16,03,55,13.50
2015,07,16,03,56,13.50
2015,07,16,03,57,13.50
2015,07,16,03,58,13.40
2015,07,16,03,59,13.40
2015,07,16,04,00,13.30
2015,07,16,04,01,13.30
2015,07,16,04,02,13.30
2015,07,16,04,03,13.30
2015,07,16,04,04,13.30
2015,07,16,04,05,13.30
2015,07,16,04,06,13.30
2015,07,16,04,07,13.30
2015,07,16,04,08,13.30
2015,07,16,04,09,13.20
2015,07,16,04,10,13.20
2015,07,16,04,11,13.20
2015,07,16,04,12,13.20
2015,07,16,04,13,13.20
2015,07,16,04,14,13.20
2015,07,16,04,15,13.20
2015,07,16,04,16,13.20
2015,07,16,04,17,13.20
2015,07,16,04,18,13.20
2015,07,16,04,19,13.20
2015,07,16,04,20,13.20
2015,07,16,04,21,13.20
2015,07,16,04,22,13.20
2015,07,16,04,23,13.10
2015,07,16,04,24,13.10
2015,07,16,04,25,13.10
2015,07,16,04,26,13.10
2015,07,16,04,27,13.20
2015,07,16,04,28,13.20
2015,07,16,04,29,13.10
2015,07,16,04,30,13.10
2015,07,16,04,31,13.10
2015,07,16,04,32,13.10
2015,07,16,04,33,13.10
2015,07,16,04,34,13.20
2015,07,16,04,35,13.10
2015,07,16,04,36,13.10
2015,07,16,04,37,13.10
2015,07,16,04,38,13.10
2015,07,16,04,39,13.10
2015,07,16,04,40,13.10
2015,07,16,04,41,13.10
2015,07,16,04,42,13.10
2015,07,16,04,43,13.10
2015,07,16,04,44,13.00
2015,07,16,04,45,13.00
2015,07,16,04,46,13.00
2015,07,16,04,47,13.00
2015,07,16,04,48,12.90
2015,07,16,04,49,12.90
2015,07,16,04,50,12.90
2015,07,16,04,51,12.90
2015,07,16,04,52,12.90
2015,07,16,04,53,12.90
2015,07,16,04,54,12.90
2015,07,16,04,55,12.90
2015,07,16,04,56,12.90
2015,07,16,04,57,12.80
2015,07,16,04,58,12.80
2015,07,16,04,59,12.80
2015,07,16,05,00,12.80
2015,07,16,05,01,12.80
2015,07,16,05,02,12.80
2015,07,16,05,03,12.70
2015,07,16,05,04,12.70
2015,07,16,05,05,12.70
2015,07,16,05,06,12.60
2015,07,16,05,07,12.60
2015,07,16,05,08,12.60
2015,07,16,05,09,12.60
2015,07,16,05,10,12.60
2015,07,16,05,11,12.50
2015,07,16,05,12,12.50
2015,07,16,05,13,12.40
2015,07,16,05,14,12.40
2015,07,16,05,15,12.40
2015,07,16,05,16,12.30
2015,07,16,05,17,12.30
2015,07,16,05,18,12.30
2015,07,16,05,19,12.30
2015,07,16,05,20,12.30
2015,07,16,05,21,12.30
2015,07,16,05,22,12.20
2015,07,16,05,23,12.20
2015,07,16,05,24,12.20
2015,07,16,05,25,12.20
2015,07,16,05,26,12.20
2015,07,16,05,27,12.20
2015,07,16,05,28,12.20
2015,07,16,05,29,12.20
2015,07,16,05,30,12.20
2015,07,16,05,31,12.20
2015,07,16,05,32,12.20
2015,07,16,05,33,12.20
2015,07,16,05,34,12.30
2015,07,16,05,35,12.20
2015,07,16,05,36,12.20
2015,07,16,05,37,12.30
2015,07,16,05,38,12.20
2015,07,16,05,39,12.20
2015,07,16,05,40,12.20
2015,07,16,05,41,12.20
2015,07,16,05,42,12.20
2015,07,16,05,43,12.20
2015,07,16,05,44,12.20
2015,07,16,05,45,12.20
2015,07,16,05,46,12.20
2015,07,16,05,47,12.20
2015,07,16,05,48,12.20
2015,07,16,05,49,12.20
2015,07,16,05,50,12.20
2015,07,16,05,51,12.20
2015,07,16,05,52,12.30
2015,07,16,05,53,12.30
2015,07,16,05,54,12.30
2015,07,16,05,55,12.30
2015,07,16,05,56,12.30
2015,07,16,05,57,12.30
2015,07,16,05,58,12.30
2015,07,16,05,59,12.40
2015,07,16,06,00,12.40
2015,07,16,06,01,12.40
2015,07,16,06,02,12.40
2015,07,16,06,03,12.50
2015,07,16,06,04,12.60
2015,07,16,06,05,12.60
2015,07,16,06,06,12.70
2015,07,16,06,07,12.70
2015,07,16,06,08,12.80
2015,07,16,06,09,12.80
2015,07,16,06,10,12.90
2015,07,16,06,11,12.90
2015,07,16,06,12,13.00
2015,07,16,06,13,13.10
2015,07,16,06,14,13.10
2015,07,16,06,15,13.20
2015,07,16,06,16,13.20
2015,07,16,06,17,13.30
2015,07,16,06,18,13.40
2015,07,16,06,19,13.40
2015,07,16,06,20,13.40
2015,07,16,06,21,13.40
2015,07,16,06,22,13.50
2015,07,16,06,23,13.60
2015,07,16,06,24,13.60
2015,07,16,06,25,13.60
2015,07,16,06,26,13.60
2015,07,16,06,27,13.70
2015,07,16,06,28,13.70
2015,07,16,06,29,13.70
2015,07,16,06,30,13.80
2015,07,16,06,31,13.80
2015,07,16,06,32,13.80
2015,07,16,06,33,13.80
2015,07,16,06,34,13.90
2015,07,16,06,35,13.90
2015,07,16,06,36,13.90
2015,07,16,06,37,13.90
2015,07,16,06,38,13.90
2015,07,16,06,39,13.90
2015,07,16,06,40,13.90
2015,07,16,06,41,13.90
2015,07,16,06,42,13.90
2015,07,16,06,43,13.90
2015,07,16,06,44,13.90
2015,07,16,06,45,13.90
2015,07,16,06,46,14.00
2015,07,16,06,47,14.00
2015,07,16,06,48,14.00
2015,07,16,06,49,14.00
2015,07,16,06,50,14.10
2015,07,16,06,51,14.10
2015,07,16,06,52,14.10
2015,07,16,06,53,14.10
2015,07,16,06,54,14.10
2015,07,16,06,55,14.20
2015,07,16,06,56,14.20
2015,07,16,06,57,14.20
2015,07,16,06,58,14.30
2015,07,16,06,59,14.30
2015,07,16,07,00,14.30
2015,07,16,07,01,14.40
2015,07,16,07,02,14.40
2015,07,16,07,03,14.40
2015,07,16,07,04,14.50
2015,07,16,07,05,14.60
2015,07,16,07,06,14.60
2015,07,16,07,07,14.60
2015,07,16,07,08,14.70
2015,07,16,07,09,14.70
2015,07,16,07,10,14.70
2015,07,16,07,11,14.80
2015,07,16,07,12,14.80
2015,07,16,07,13,14.80
2015,07,16,07,14,14.90
2015,07,16,07,15,14.90
2015,07,16,07,16,15.00
2015,07,16,07,17,15.00
2015,07,16,07,18,15.00
2015,07,16,07,19,15.10
2015,07,16,07,20,15.10
2015,07,16,07,21,15.20
2015,07,16,07,22,15.20
2015,07,16,07,23,15.20
2015,07,16,07,24,15.30
2015,07,16,07,25,15.30
2015,07,16,07,26,15.40
2015,07,16,07,27,15.40
2015,07,16,07,28,15.50
2015,07,16,07,29,15.50
2015,07,16,07,30,15.50
2015,07,16,07,31,15.50
2015,07,16,07,32,15.60
2015,07,16,07,33,15.60
2015,07,16,07,34,15.60
2015,07,16,07,35,15.70
2015,07,16,07,36,15.80
2015,07,16,07,37,15.80
2015,07,16,07,38,15.80
2015,07,16,07,39,15.80
2015,07,16,07,40,15.80
2015,07,16,07,41,15.90
2015,07,16,07,42,15.90
2015,07,16,07,43,15.90
2015,07,16,07,44,15.90
2015,07,16,07,45,15.90
2015,07,16,07,46,15.90
2015,07,16,07,47,16.00
2015,07,16,07,48,16.00
2015,07,16,07,49,16.10
2015,07,16,07,50,16.10
2015,07,16,07,51,16.10
2015,07,16,07,52,16.10
2015,07,16,07,53,16.10
2015,07,16,07,54,16.10
2015,07,16,07,55,16.10
2015,07,16,07,56,16.20
2015,07,16,07,57,16.20
2015,07,16,07,58,16.30
2015,07,16,07,59,16.30
2015,07,16,08,00,16.40
2015,07,16,08,01,16.50
2015,07,16,08,02,16.60
2015,07,16,08,03,16.70
2015,07,16,08,04,16.70
2015,07,16,08,05,16.70
2015,07,16,08,06,16.70
2015,07,16,08,07,16.70
2015,07,16,08,08,16.70
2015,07,16,08,09,16.80
2015,07,16,08,10,16.80
2015,07,16,08,11,16.80
2015,07,16,08,12,16.80
2015,07,16,08,13,16.80
2015,07,16,08,14,16.90
2015,07,16,08,15,16.90
2015,07,16,08,16,17.00
2015,07,16,08,17,17.00
2015,07,16,08,18,17.10
2015,07,16,08,19,17.20
2015,07,16,08,20,17.30
2015,07,16,08,21,17.30
2015,07,16,08,22,17.40
2015,07,16,08,23,17.50
2015,07,16,08,24,17.50
2015,07,16,08,25,17.50
2015,07,16,08,26,17.60
2015,07,16,08,27,17.60
2015,07,16,08,28,17.60
2015,07,16,08,29,17.70
2015,07,16,08,30,17.70
2015,07,16,08,31,17.70
2015,07,16,08,32,17.80
2015,07,16,08,33,17.80
2015,07,16,08,34,17.90
2015,07,16,08,35,17.90
2015,07,16,08,36,17.90
2015,07,16,08,37,18.00
2015,07,16,08,38,18.10
2015,07,16,08,39,18.10
2015,07,16,08,40,18.10
2015,07,16,08,41,18.20
2015,07,16,08,42,18.20
2015,07,16,08,43,18.20
2015,07,16,08,44,18.20
2015,07,16,08,45,18.30
2015,07,16,08,46,18.30
2015,07,16,08,47,18.30
2015,07,16,08,48,18.30
2015,07,16,08,49,18.30
2015,07,16,08,50,18.30
2015,07,16,08,51,18.30
2015,07,16,08,52,18.30
2015,07,16,08,53,18.30
2015,07,16,08,54,18.30
2015,07,16,08,55,18.30
2015,07,16,08,56,18.30
2015,07,16,08,57,18.40
2015,07,16,08,58,18.40
2015,07,16,08,59,18.40
2015,07,16,09,00,18.50
2015,07,16,09,01,18.50
2015,07,16,09,02,18.60
2015,07,16,09,03,18.60
2015,07,16,09,04,18.70
2015,07,16,09,05,18.80
2015,07,16,09,06,18.80
2015,07,16,09,07,18.90
2015,07,16,09,08,19.00
2015,07,16,09,09,19.00
2015,07,16,09,10,19.10
2015,07,16,09,11,19.10
2015,07,16,09,12,19.10
2015,07,16,09,13,19.00
2015,07,16,09,14,19.00
2015,07,16,09,15,19.00
2015,07,16,09,16,18.90
2015,07,16,09,17,18.90
2015,07,16,09,18,18.90
2015,07,16,09,19,19.00
2015,07,16,09,20,19.00
2015,07,16,09,21,19.10
2015,07,16,09,22,19.10
2015,07,16,09,23,19.10
2015,07,16,09,24,19.10
2015,07,16,09,25,19.00
2015,07,16,09,26,19.00
2015,07,16,09,27,18.90
2015,07,16,09,28,18.90
2015,07,16,09,29,19.00
2015,07,16,09,30,19.00
2015,07,16,09,31,19.00
2015,07,16,09,32,19.00
2015,07,16,09,33,19.10
2015,07,16,09,34,19.20
2015,07,16,09,35,19.20
2015,07,16,09,36,19.20
2015,07,16,09,37,19.20
2015,07,16,09,38,19.20
2015,07,16,09,39,19.20
2015,07,16,09,40,19.20
2015,07,16,09,41,19.20
2015,07,16,09,42,19.20
2015,07,16,09,43,19.20
2015,07,16,09,44,19.20
2015,07,16,09,45,19.20
2015,07,16,09,46,19.20
2015,07,16,09,47,19.30
2015,07,16,09,48,19.20
2015,07,16,09,49,19.20
2015,07,16,09,50,19.30
2015,07,16,09,51,19.30
2015,07,16,09,52,19.40
2015,07,16,09,53,19.40
2015,07,16,09,54,19.40
2015,07,16,09,55,19.30
2015,07,16,09,56,19.30
2015,07,16,09,57,19.30
2015,07,16,09,58,19.40
2015,07,16,09,59,19.40
2015,07,16,10,00,19.40
2015,07,16,10,01,19.40
2015,07,16,10,02,19.40
2015,07,16,10,03,19.40
2015,07,16,10,04,19.40
2015,07,16,10,05,19.30
2015,07,16,10,06,19.30
2015,07,16,10,07,19.40
2015,07,16,10,08,19.40
2015,07,16,10,09,19.50
2015,07,16,10,10,19.50
2015,07,16,10,11,19.60
2015,07,16,10,12,19.60
2015,07,16,10,13,19.70
2015,07,16,10,14,19.70
2015,07,16,10,15,19.60
2015,07,16,10,16,19.60
2015,07,16,10,17,19.60
2015,07,16,10,18,19.50
2015,07,16,10,19,19.40
2015,07,16,10,20,19.40
2015,07,16,10,21,19.40
2015,07,16,10,22,19.50
2015,07,16,10,23,19.50
2015,07,16,10,24,19.50
2015,07,16,10,25,19.60
2015,07,16,10,26,19.60
2015,07,16,10,27,19.60
2015,07,16,10,28,19.70
2015,07,16,10,29,19.70
2015,07,16,10,30,19.70
2015,07,16,10,31,19.70
2015,07,16,10,32,19.60
2015,07,16,10,33,19.50
2015,07,16,10,34,19.50
2015,07,16,10,35,19.40
2015,07,16,10,36,19.40
2015,07,16,10,37,19.30
2015,07,16,10,38,19.30
2015,07,16,10,39,19.40
2015,07,16,10,40,19.40
2015,07,16,10,41,19.40
2015,07,16,10,42,19.40
2015,07,16,10,43,19.50
2015,07,16,10,44,19.60
2015,07,16,10,45,19.70
2015,07,16,10,46,19.80
2015,07,16,10,47,19.90
2015,07,16,10,48,19.90
2015,07,16,10,49,19.90
2015,07,16,10,50,20.00
2015,07,16,10,51,20.00
2015,07,16,10,52,20.00
2015,07,16,10,53,19.90
2015,07,16,10,54,19.90
2015,07,16,10,55,19.80
2015,07,16,10,56,19.80
2015,07,16,10,57,19.80
2015,07,16,10,58,19.80
2015,07,16,10,59,19.80
2015,07,16,11,00,19.80
2015,07,16,11,01,19.80
2015,07,16,11,02,19.90
2015,07,16,11,03,20.00
2015,07,16,11,04,20.00
2015,07,16,11,05,20.10
2015,07,16,11,06,20.10
2015,07,16,11,07,20.10
2015,07,16,11,08,20.10
2015,07,16,11,09,20.20
2015,07,16,11,10,20.30
2015,07,16,11,11,20.40
2015,07,16,11,12,20.40
2015,07,16,11,13,20.40
2015,07,16,11,14,20.30
2015,07,16,11,15,20.20
2015,07,16,11,16,20.30
2015,07,16,11,17,20.30
2015,07,16,11,18,20.40
2015,07,16,11,19,20.50
2015,07,16,11,20,20.50
2015,07,16,11,21,20.50
2015,07,16,11,22,20.50
2015,07,16,11,23,20.50
2015,07,16,11,24,20.40
2015,07,16,11,25,20.40
2015,07,16,11,26,20.30
2015,07,16,11,27,20.40
2015,07,16,11,28,20.40
2015,07,16,11,29,20.40
2015,07,16,11,30,20.40
2015,07,16,11,31,20.50
2015,07,16,11,32,20.50
2015,07,16,11,33,20.60
2015,07,16,11,34,20.70
2015,07,16,11,35,20.80
2015,07,16,11,36,20.90
2015,07,16,12,06,22.40
2015,07,16,12,07,22.30
2015,07,16,12,08,22.30
2015,07,16,12,09,22.30
2015,07,16,12,10,22.20
2015,07,16,12,11,22.20
2015,07,16,12,12,22.20
2015,07,16,12,13,22.20
2015,07,16,12,14,22.20
2015,07,16,12,15,22.20
2015,07,16,12,16,22.20
2015,07,16,12,17,22.10
2015,07,16,12,18,22.10
2015,07,16,12,19,22.10
2015,07,16,12,20,22.10
2015,07,16,12,21,22.00
2015,07,16,12,22,22.00
2015,07,16,12,23,22.00
2015,07,16,12,24,21.90
2015,07,16,12,25,21.90
2015,07,16,12,26,21.90
2015,07,16,12,27,21.90
2015,07,16,12,28,21.90
2015,07,16,12,29,21.80
2015,07,16,12,30,21.80
2015,07,16,12,31,21.70
2015,07,16,12,32,21.70
2015,07,16,12,33,21.60
2015,07,16,12,34,21.50
2015,07,16,12,35,21.50
2015,07,16,12,36,21.40
2015,07,16,12,37,21.40
2015,07,16,12,38,21.30
2015,07,16,12,39,21.30
2015,07,16,12,40,21.30
2015,07,16,12,41,21.20
2015,07,16,12,42,21.20
2015,07,16,12,43,21.10
2015,07,16,12,44,21.10
2015,07,16,12,45,21.10
2015,07,16,12,46,21.00
2015,07,16,12,47,21.00
2015,07,16,12,48,21.00
2015,07,16,12,49,21.00
2015,07,16,12,50,21.00
2015,07,16,12,51,20.90
2015,07,16,12,52,20.90
2015,07,16,12,53,20.90
2015,07,16,12,54,20.90
2015,07,16,12,55,20.90
2015,07,16,12,56,20.90
2015,07,16,12,57,20.90
2015,07,16,12,58,20.80
2015,07,16,12,59,20.80
2015,07,16,13,00,20.80
2015,07,16,13,01,20.80
2015,07,16,13,02,20.80
2015,07,16,13,03,20.80
2015,07,16,13,04,20.80
2015,07,16,13,05,20.80
2015,07,16,13,06,20.80
2015,07,16,13,07,20.70
2015,07,16,13,08,20.70
2015,07,16,13,09,20.70
2015,07,16,13,10,20.70
2015,07,16,13,11,20.70
2015,07,16,13,12,20.60
2015,07,16,13,13,20.60
2015,07,16,13,14,20.60
2015,07,16,13,15,20.60
2015,07,16,13,16,20.50
2015,07,16,13,17,20.50
2015,07,16,13,18,20.50
2015,07,16,13,19,20.40
2015,07,16,13,20,20.40
2015,07,16,13,21,20.40
2015,07,16,13,22,20.30
2015,07,16,13,23,20.30
2015,07,16,13,24,20.30
2015,07,16,13,25,20.30
2015,07,16,13,26,20.20
2015,07,16,13,27,20.20
2015,07,16,13,28,20.10
2015,07,16,13,29,20.10
2015,07,16,13,30,20.10
2015,07,16,13,31,20.10
2015,07,16,13,32,20.00
2015,07,16,13,33,20.00
2015,07,16,13,34,19.90
2015,07,16,13,35,19.90
2015,07,16,13,36,19.90
2015,07,16,13,37,19.80
2015,07,16,13,38,19.80
2015,07,16,13,39,19.80
2015,07,16,13,40,19.70
2015,07,16,13,41,19.70
2015,07,16,13,42,19.70
2015,07,16,13,43,19.60
2015,07,16,13,44,19.60
2015,07,16,13,45,19.60
2015,07,16,13,46,19.50
2015,07,16,13,47,19.40
2015,07,16,13,48,19.40
2015,07,16,13,49,19.40
2015,07,16,13,50,19.40
2015,07,16,13,51,19.30
2015,07,16,13,52,19.30
2015,07,16,13,53,19.30
2015,07,16,13,54,19.30
2015,07,16,13,55,19.30
2015,07,16,13,56,19.30
2015,07,16,13,57,19.20
2015,07,16,13,58,19.20
2015,07,16,13,59,19.20
2015,07,16,14,00,19.20
2015,07,16,14,01,19.20
2015,07,16,14,02,19.10
2015,07,16,14,03,19.10
2015,07,16,14,04,19.10
2015,07,16,14,05,19.10
2015,07,16,14,06,19.00
2015,07,16,14,07,19.00
2015,07,16,14,08,18.90
2015,07,16,14,09,18.90
2015,07,16,14,10,18.90
2015,07,16,14,11,18.90
2015,07,16,14,12,18.80
2015,07,16,14,13,18.80
2015,07,16,14,14,18.80
2015,07,16,14,15,18.70
2015,07,16,14,16,18.70
2015,07,16,14,17,18.70
2015,07,16,14,18,18.70
2015,07,16,14,19,18.60
2015,07,16,14,20,18.60
2015,07,16,14,21,18.60
2015,07,16,14,22,18.50
2015,07,16,14,23,18.50
2015,07,16,14,24,18.40
2015,07,16,14,25,18.40
2015,07,16,14,26,18.40
2015,07,16,14,27,18.30
2015,07,16,14,28,18.30
2015,07,16,14,29,18.30
2015,07,16,14,30,18.30
2015,07,16,14,31,18.30
2015,07,16,14,32,18.30
2015,07,16,14,33,18.30
2015,07,16,14,34,18.30
2015,07,16,14,35,18.40
2015,07,16,14,36,18.40
2015,07,16,14,37,18.40
2015,07,16,14,38,18.50
2015,07,16,14,39,18.50
2015,07,16,14,40,18.50
2015,07,16,14,41,18.60
2015,07,16,14,42,18.60
2015,07,16,14,43,18.60
2015,07,16,14,44,18.60
2015,07,16,14,45,18.60
2015,07,16,14,46,18.60
2015,07,16,14,47,18.60
2015,07,16,14,48,18.60
2015,07,16,14,49,18.60
2015,07,16,14,50,18.50
2015,07,16,14,51,18.50
2015,07,16,14,52,18.50
2015,07,16,14,53,18.50
2015,07,16,14,54,18.50
2015,07,16,14,55,18.50
2015,07,16,14,56,18.50
2015,07,16,14,57,18.40
2015,07,16,14,58,18.40
2015,07,16,14,59,18.40
2015,07,16,15,00,18.40
2015,07,16,15,01,18.30
2015,07,16,15,02,18.30
2015,07,16,15,03,18.30
2015,07,16,15,04,18.30
2015,07,16,15,05,18.30
2015,07,16,15,06,18.20
2015,07,16,15,07,18.20
2015,07,16,15,08,18.20
2015,07,16,15,09,18.30
2015,07,16,15,10,18.30
2015,07,16,15,11,18.30
2015,07,16,15,12,18.20
2015,07,16,15,13,18.20
2015,07,16,15,14,18.20
2015,07,16,15,15,18.20
2015,07,16,15,16,18.20
2015,07,16,15,17,18.10
2015,07,16,15,18,18.10
2015,07,16,15,19,18.10
2015,07,16,15,20,18.10
2015,07,16,15,21,18.10
2015,07,16,15,22,18.00
2015,07,16,15,23,18.10
2015,07,16,15,24,18.10
2015,07,16,15,25,18.10
2015,07,16,15,26,18.10
2015,07,16,15,27,18.10
2015,07,16,15,28,18.10
2015,07,16,15,29,18.10
2015,07,16,15,30,18.10
2015,07,16,15,31,18.10
2015,07,16,15,32,18.10
2015,07,16,15,33,18.10
2015,07,16,15,34,18.10
2015,07,16,15,35,18.10
2015,07,16,15,36,18.10
2015,07,16,15,37,18.00
2015,07,16,15,38,18.00
2015,07,16,15,39,18.00
2015,07,16,15,40,18.00
2015,07,16,15,41,17.90
2015,07,16,15,42,17.90
2015,07,16,15,43,17.90
2015,07,16,15,44,17.90
2015,07,16,15,45,17.80
2015,07,16,15,46,17.80
2015,07,16,15,47,17.80
2015,07,16,15,48,17.80
2015,07,16,15,49,17.70
2015,07,16,15,50,17.70
2015,07,16,15,51,17.60
2015,07,16,15,52,17.60
2015,07,16,15,53,17.50
2015,07,16,15,54,17.50
2015,07,16,15,55,17.50
2015,07,16,15,56,17.40
2015,07,16,15,57,17.40
2015,07,16,15,58,17.40
2015,07,16,15,59,17.30
2015,07,16,16,00,17.30
2015,07,16,16,01,17.30
2015,07,16,16,02,17.20
2015,07,16,16,03,17.20
2015,07,16,16,04,17.10
2015,07,16,16,05,17.10
2015,07,16,16,06,17.10
2015,07,16,16,07,17.00
2015,07,16,16,08,17.00
2015,07,16,16,09,17.00
2015,07,16,16,10,16.90
2015,07,16,16,11,16.90
2015,07,16,16,12,16.90
2015,07,16,16,13,16.90
2015,07,16,16,14,16.90
2015,07,16,16,15,16.80
2015,07,16,16,16,16.80
2015,07,16,16,17,16.80
2015,07,16,16,18,16.80
2015,07,16,16,19,16.80
2015,07,16,16,20,16.80
2015,07,16,16,21,16.70
2015,07,16,16,22,16.70
2015,07,16,16,23,16.70
2015,07,16,16,24,16.70
2015,07,16,16,25,16.60
2015,07,16,16,26,16.60
2015,07,16,16,27,16.60
2015,07,16,16,28,16.60
2015,07,16,16,29,16.60
2015,07,16,16,30,16.50
2015,07,16,16,31,16.50
2015,07,16,16,32,16.40
2015,07,16,16,33,16.40
2015,07,16,16,34,16.40
2015,07,16,16,35,16.30
2015,07,16,16,36,16.30
2015,07,16,16,37,16.30
2015,07,16,16,38,16.30
2015,07,16,16,39,16.30
2015,07,16,16,40,16.30
2015,07,16,16,41,16.30
2015,07,16,16,42,16.30
2015,07,16,16,43,16.30
2015,07,16,16,44,16.30
2015,07,16,16,45,16.30
2015,07,16,16,46,16.30
2015,07,16,16,47,16.30
2015,07,16,16,48,16.20
2015,07,16,16,49,16.20
2015,07,16,16,50,16.20
2015,07,16,16,51,16.20
2015,07,16,16,52,16.20
2015,07,16,16,53,16.10
2015,07,16,16,54,16.10
2015,07,16,16,55,16.10
2015,07,16,16,56,16.20
2015,07,16,16,57,16.10
2015,07,16,16,58,16.10
2015,07,16,16,59,16.10
2015,07,16,17,00,16.10
2015,07,16,17,01,16.10
2015,07,16,17,02,16.10
2015,07,16,17,03,16.20
2015,07,16,17,04,16.20
2015,07,16,17,05,16.20
2015,07,16,17,06,16.20
2015,07,16,17,07,16.30
2015,07,16,17,08,16.30
2015,07,16,17,09,16.30
2015,07,16,17,10,16.30
2015,07,16,17,11,16.30
2015,07,16,17,12,16.30
2015,07,16,17,13,16.30
2015,07,16,17,14,16.30
2015,07,16,17,15,16.30
2015,07,16,17,16,16.30
2015,07,16,17,17,16.30
2015,07,16,17,18,16.30
2015,07,16,17,19,16.30
2015,07,16,17,20,16.30
2015,07,16,17,21,16.30
2015,07,16,17,22,16.20
2015,07,16,17,23,16.20
2015,07,16,17,24,16.20
2015,07,16,17,25,16.20
2015,07,16,17,26,16.20
2015,07,16,17,27,16.20
2015,07,16,17,28,16.20
2015,07,16,17,29,16.10
2015,07,16,17,30,16.10
2015,07,16,17,31,16.10
2015,07,16,17,32,16.10
2015,07,16,17,33,16.10
2015,07,16,17,34,16.10
2015,07,16,17,35,16.00
2015,07,16,17,36,16.00
2015,07,16,17,37,16.00
2015,07,16,17,38,16.00
2015,07,16,17,39,16.00
2015,07,16,17,40,16.00
2015,07,16,17,41,16.00
2015,07,16,17,42,16.00
2015,07,16,17,43,15.90
2015,07,16,17,44,15.90
2015,07,16,17,45,15.90
2015,07,16,17,46,15.90
2015,07,16,17,47,15.90
2015,07,16,17,48,15.90